TimePST,TemperatureF,Dew PointF,Humidity,Sea Level PressureIn,VisibilityMPH,Wind Direction,Wind SpeedMPH,Gust SpeedMPH,PrecipitationIn,Events,Conditions,WindDirDegrees,DateUTC
12:56 AM,28.9,19.0,67,30.22,10.0,Calm,Calm,-,N/A,,Clear,0,2013-11-10 08:56:00
1:56 AM,28.9,19.0,67,30.22,10.0,ENE,4.6,-,N/A,,Clear,60,2013-11-10 09:56:00
2:56 AM,28.0,18.0,66,30.22,10.0,ENE,3.5,-,N/A,,Clear,60,2013-11-10 10:56:00
3:56 AM,26.1,17.1,69,30.24,10.0,ENE,3.5,-,N/A,,Clear,70,2013-11-10 11:56:00
4:56 AM,26.1,17.1,69,30.27,10.0,ENE,4.6,-,N/A,,Clear,70,2013-11-10 12:56:00
5:56 AM,25.0,17.1,72,30.31,10.0,East,3.5,-,N/A,,Clear,90,2013-11-10 13:56:00
6:56 AM,26.1,17.1,69,30.34,10.0,East,3.5,-,N/A,,Clear,90,2013-11-10 14:56:00
7:56 AM,28.9,18.0,64,30.35,10.0,East,4.6,-,N/A,,Clear,90,2013-11-10 15:56:00
8:56 AM,36.0,19.9,52,30.33,10.0,Calm,Calm,-,N/A,,Clear,0,2013-11-10 16:56:00
9:56 AM,45.0,21.9,40,30.30,10.0,Calm,Calm,-,N/A,,Clear,0,2013-11-10 17:56:00
10:56 AM,51.1,21.0,31,30.27,10.0,Calm,Calm,-,N/A,,Clear,0,2013-11-10 18:56:00
11:56 AM,55.9,21.0,26,30.23,10.0,Calm,Calm,-,N/A,,Clear,0,2013-11-10 19:56:00
12:56 PM,61.0,19.9,21,30.19,10.0,Calm,Calm,-,N/A,,Clear,0,2013-11-10 20:56:00
1:56 PM,62.1,19.9,20,30.18,10.0,Calm,Calm,-,N/A,,Clear,0,2013-11-10 21:56:00
2:56 PM,63.0,19.0,18,30.17,10.0,WSW,3.5,-,N/A,,Clear,250,2013-11-10 22:56:00
3:56 PM,63.0,18.0,18,30.17,10.0,Calm,Calm,-,N/A,,Clear,0,2013-11-10 23:56:00
4:56 PM,52.0,21.0,30,30.22,10.0,North,4.6,-,N/A,,Clear,10,2013-11-11 00:56:00
5:56 PM,46.0,21.0,37,30.25,10.0,East,4.6,-,N/A,,Clear,80,2013-11-11 01:56:00
6:56 PM,39.0,23.0,53,30.27,10.0,Calm,Calm,-,N/A,,Clear,0,2013-11-11 02:56:00
7:56 PM,39.0,21.9,50,30.28,10.0,Calm,Calm,-,N/A,,Clear,0,2013-11-11 03:56:00
8:56 PM,37.0,21.0,52,30.28,10.0,East,4.6,-,N/A,,Clear,80,2013-11-11 04:56:00
9:56 PM,35.1,19.9,54,30.27,10.0,East,5.8,-,N/A,,Clear,100,2013-11-11 05:56:00
10:56 PM,33.1,19.0,56,30.27,10.0,ENE,6.9,-,N/A,,Clear,70,2013-11-11 06:56:00
11:56 PM,32.0,19.0,59,30.27,10.0,ENE,8.1,-,N/A,,Clear,70,2013-11-11 07:56:00